{"data":{"norad_id":66261,"epoch":"2026-05-25T02:46:27.127200Z","epoch_age_seconds":62170,"freshness":"FRESH","line1":"1 66261U 25245AD  26145.11559175  .00011892  00000+0  39418-3 0  9999","line2":"2 66261  53.1583 288.4755 0001712  73.8563 286.2627 15.31716149 32961","mean_motion":15.31716149,"eccentricity":0.0001712,"inclination_deg":53.1583,"raan_deg":288.4755,"arg_perigee_deg":73.8563,"mean_anomaly_deg":286.2627,"bstar":0.00039418,"rev_number":3296,"period_min":94.012196772889,"perigee_km":469.51933681972,"apogee_km":471.86437582012,"semimajor_km":6848.8288563199,"source":"CELESTRAK","updated_at":"2026-05-25T13:38:21.139555Z"}}